Bentonville, AR

12:45 AM CST on February 20, 2017 (GMT -0600)
Northwest Arkansas Regional

Weather History for KXNA - December, 2012

Change the Weather History Date:

Tuesday, December 25, 2012

  Actual Average (KVBT) Record (KVBT)
Temperature  
Mean Temperature 27 °F -  
Max Temperature 30 °F 42 °F 70 °F (1971)
Min Temperature 24 °F 22 °F -10 °F (1983)
Degree Days  
Heating Degree Days 38    
Moisture  
Dew Point 21 °F    
Average Humidity 77    
Maximum Humidity 85    
Minimum Humidity 69    
Precipitation  
Precipitation 0.00 in - - ()
Sea Level Pressure  
Sea Level Pressure 29.98 in    
Wind  
Wind Speed 15 mph (NE)    
Max Wind Speed 25 mph    
Max Gust Speed 34 mph    
Visibility 8 miles    
Events      
Averages and records for this station are not official NWS values.
T = Trace of Precipitation, MM = Missing Value Source: NWS Daily Summary

Daily Weather History Graph

Daily Weather History Graph

Search for Another Location

Airport or City:

Trip Planner

Search our weather history database for the weather conditions in past years. The results will help you decide how hot, cold, wet, or windy it might be!

Date:

Astronomy

Dec. 25, 2012 Rise Set
Actual Time 7:26 AM CST 5:08 PM CST
Civil Twilight 6:58 AM CST 5:37 PM CST
Nautical Twilight 6:25 AM CST 6:09 PM CST
Astronomical Twilight 5:54 AM CST 6:40 PM CST
Moon 3:16 PM CST (12/25) 5:01 AM CST (12/25)
Length of Visible Light 10h 39m
Length of Day
9h 41m
Waxing Gibbous, 94% of the Moon is Illuminated
Dec 25
Waxing Gibbous
Dec 28
Full
Jan 4
Last Quarter
Jan 11
New
Jan 18
First Quarter

Hourly Weather History & Observations

Time (CST) Temp. Windchill Dew Point Humidity Pressure Visibility Wind Dir Wind Speed Gust Speed Precip Events Conditions
12:53 AM 28.9 °F 19.8 °F 24.1 °F 82% 29.98 in 6.0 mi NE 10.4 mph - N/A   Haze
1:53 AM 27.0 °F 19.5 °F 23.0 °F 85% 30.00 in 5.0 mi NNE 6.9 mph - N/A   Clear
2:53 AM 27.0 °F 16.1 °F 21.9 °F 81% 29.99 in 6.0 mi NE 12.7 mph - N/A   Haze
3:53 AM 26.1 °F 14.5 °F 21.9 °F 84% 29.99 in 6.0 mi ENE 13.8 mph - N/A   Clear
4:53 AM 26.1 °F 16.2 °F 21.9 °F 84% 29.99 in 6.0 mi NE 10.4 mph - N/A   Clear
5:53 AM 26.1 °F 14.5 °F 21.9 °F 84% 30.00 in 6.0 mi NE 13.8 mph - N/A   Scattered Clouds
6:53 AM 26.1 °F 15.0 °F 21.9 °F 84% 30.02 in 6.0 mi NE 12.7 mph - N/A   Overcast
7:53 AM 26.1 °F 12.3 °F 21.9 °F 84% 29.99 in 5.0 mi ENE 19.6 mph 24.2 mph N/A   Overcast
8:53 AM 27.0 °F 14.7 °F 21.9 °F 81% 29.98 in 6.0 mi ENE 16.1 mph - N/A   Haze
9:53 AM 28.0 °F 16.1 °F 21.9 °F 78% 29.97 in 7.0 mi NE 16.1 mph 25.3 mph N/A   Overcast
10:53 AM 28.0 °F 16.1 °F 21.0 °F 75% 29.95 in 8.0 mi ENE 16.1 mph 26.5 mph N/A   Overcast
11:53 AM 28.0 °F 17.5 °F 19.0 °F 69% 29.94 in 10.0 mi NE 12.7 mph - N/A   Overcast
12:53 PM 30.0 °F 17.2 °F 21.0 °F 69% 29.93 in 10.0 mi NE 20.7 mph 26.5 mph N/A   Mostly Cloudy
1:53 PM 30.0 °F 17.9 °F 21.0 °F 69% 29.93 in 10.0 mi NNE 18.4 mph 29.9 mph N/A   Mostly Cloudy
2:53 PM 30.0 °F 17.9 °F 21.0 °F 69% 29.96 in 10.0 mi NNE 18.4 mph 32.2 mph N/A   Overcast
3:53 PM 30.0 °F 16.6 °F 21.0 °F 69% 29.95 in 10.0 mi NNE 23.0 mph 34.5 mph N/A   Partly Cloudy
4:42 PM 30.2 °F 18.1 °F 21.2 °F 69% 29.93 in 10.0 mi NNE 18.4 mph 28.8 mph N/A   Overcast
4:53 PM 30.0 °F 18.7 °F 21.0 °F 69% 29.97 in 10.0 mi NNE 16.1 mph 29.9 mph N/A   Overcast
5:53 PM 28.9 °F 14.8 °F 21.9 °F 75% 29.98 in 10.0 mi NNE 24.2 mph 34.5 mph N/A   Overcast
6:53 PM 28.0 °F 13.3 °F 21.9 °F 78% 29.99 in 10.0 mi NNE 25.3 mph 31.1 mph N/A   Overcast
7:53 PM 27.0 °F 13.2 °F 21.9 °F 81% 30.01 in 10.0 mi North 20.7 mph 28.8 mph N/A   Overcast
8:53 PM 27.0 °F 12.8 °F 21.0 °F 78% 30.01 in 10.0 mi NNE 21.9 mph 31.1 mph N/A   Overcast
9:53 PM 25.0 °F 10.6 °F 19.9 °F 81% 30.02 in 10.0 mi North 20.7 mph 25.3 mph N/A   Overcast
10:53 PM 24.1 °F 10.1 °F 18.0 °F 77% 30.04 in 10.0 mi North 18.4 mph - N/A   Overcast
11:53 PM 24.1 °F 9.4 °F 18.0 °F 77% 30.04 in 10.0 mi North 20.7 mph 27.6 mph N/A   Overcast